Hourly Weather Gölbaşı

Today, 12 May, Wednesday

Time Temperature Precipitation Wind Pressure Humidity
00:00 +18°C° 0 mm 1 mps 678 mmHg 30%
01:00 +16°C° 0 mm 1 mps 678 mmHg 30%
02:00 +16°C° 0 mm 1 mps 678 mmHg 31%
03:00 +15°C° 0 mm 1 mps 678 mmHg 31%
04:00 +15°C° 0 mm 1 mps 678 mmHg 32%
05:00 +15°C° 0 mm 1 mps 678 mmHg 33%
06:00 +15°C° 0 mm 1 mps 679 mmHg 34%
07:00 +18°C° 0 mm 1 mps 679 mmHg 29%
08:00 +21°C° 0 mm 1 mps 680 mmHg 24%
09:00 +23°C° 0 mm 2 mps 680 mmHg 20%
10:00 +24°C° 0 mm 2 mps 680 mmHg 20%
11:00 +25°C° 0 mm 3 mps 680 mmHg 19%
12:00 +26°C° 0 mm 3 mps 681 mmHg 18%
13:00 +27°C° 0 mm 3 mps 680 mmHg 18%
14:00 +27°C° 0 mm 3 mps 680 mmHg 17%
15:00 +28°C° 0 mm 3 mps 680 mmHg 16%
16:00 +28°C° 0 mm 3 mps 680 mmHg 17%
17:00 +27°C° 0 mm 3 mps 680 mmHg 18%
18:00 +27°C° 0 mm 2 mps 679 mmHg 19%
19:00 +25°C° 0 mm 2 mps 679 mmHg 23%
20:00 +23°C° 0 mm 2 mps 679 mmHg 27%
21:00 +21°C° 0 mm 1 mps 679 mmHg 31%
22:00 +20°C° 0 mm 1 mps 679 mmHg 32%
23:00 +20°C° 0 mm 1 mps 679 mmHg 32%

Tomorrow, 13 May, Thursday

Time Temperature Precipitation Wind Pressure Humidity
00:00 +19°C° 0 mm 1 mps 679 mmHg 32%
01:00 +19°C° 0 mm 1 mps 679 mmHg 33%
02:00 +18°C° 0 mm 1 mps 678 mmHg 33%
03:00 +18°C° 0 mm 1 mps 678 mmHg 34%
04:00 +18°C° 0 mm 1 mps 679 mmHg 35%
05:00 +18°C° 0 mm 1 mps 679 mmHg 36%
06:00 +16°C° 0 mm 0 mps 679 mmHg 37%
07:00 +20°C° 0 mm 1 mps 680 mmHg 32%
08:00 +22°C° 0 mm 1 mps 681 mmHg 27%
09:00 +25°C° 0 mm 1 mps 681 mmHg 23%
10:00 +26°C° 0 mm 2 mps 681 mmHg 20%
11:00 +27°C° 0 mm 2 mps 682 mmHg 17%
12:00 +28°C° 0 mm 3 mps 682 mmHg 14%
13:00 +29°C° 0 mm 3 mps 682 mmHg 14%
14:00 +29°C° 0 mm 4 mps 681 mmHg 14%
15:00 +30°C° 0 mm 4 mps 681 mmHg 14%
16:00 +29°C° 0 mm 4 mps 681 mmHg 16%
17:00 +28°C° 0 mm 4 mps 681 mmHg 18%
18:00 +28°C° 0 mm 3 mps 681 mmHg 20%
19:00 +26°C° 0 mm 3 mps 681 mmHg 23%
20:00 +24°C° 0 mm 2 mps 681 mmHg 26%
21:00 +21°C° 0 mm 2 mps 681 mmHg 29%
22:00 +20°C° 0 mm 2 mps 680 mmHg 30%
23:00 +20°C° 0 mm 1 mps 680 mmHg 31%

Day after tomorrow, 14 May, Friday

Time Temperature Precipitation Wind Pressure Humidity
00:00 +20°C° 0 mm 1 mps 680 mmHg 31%
01:00 +19°C° 0 mm 1 mps 680 mmHg 32%
02:00 +19°C° 0 mm 1 mps 680 mmHg 33%
03:00 +18°C° 0 mm 1 mps 680 mmHg 34%
04:00 +18°C° 0 mm 1 mps 680 mmHg 35%
05:00 +18°C° 0 mm 1 mps 680 mmHg 37%
06:00 +18°C° 0 mm 1 mps 680 mmHg 38%
07:00 +21°C° 0 mm 1 mps 681 mmHg 31%
08:00 +23°C° 0 mm 1 mps 682 mmHg 25%
09:00 +26°C° 0 mm 1 mps 682 mmHg 18%
10:00 +27°C° 0 mm 2 mps 682 mmHg 16%
11:00 +28°C° 0 mm 2 mps 682 mmHg 15%
12:00 +29°C° 0 mm 3 mps 683 mmHg 13%
13:00 +30°C° 0 mm 3 mps 682 mmHg 13%
14:00 +30°C° 0 mm 3 mps 682 mmHg 13%
15:00 +30°C° 0 mm 3 mps 682 mmHg 13%
16:00 +30°C° 0 mm 3 mps 682 mmHg 15%
17:00 +29°C° 0 mm 3 mps 681 mmHg 17%
18:00 +29°C° 0 mm 3 mps 681 mmHg 19%
19:00 +27°C° 0 mm 3 mps 681 mmHg 24%
20:00 +24°C° 0 mm 2 mps 681 mmHg 30%
21:00 +21°C° 0 mm 2 mps 680 mmHg 36%
22:00 +21°C° 0 mm 2 mps 680 mmHg 36%
23:00 +20°C° 0 mm 2 mps 680 mmHg 37%

15 May, Saturday

Time Temperature Precipitation Wind Pressure Humidity
00:00 +20°C° 0 mm 2 mps 680 mmHg 37%
01:00 +20°C° 0 mm 2 mps 680 mmHg 38%
02:00 +19°C° 0 mm 2 mps 680 mmHg 38%
03:00 +19°C° 0 mm 2 mps 679 mmHg 39%
04:00 +19°C° 0 mm 2 mps 679 mmHg 40%
05:00 +19°C° 0 mm 2 mps 680 mmHg 42%
06:00 +19°C° 0 mm 2 mps 680 mmHg 43%
07:00 +21°C° 0 mm 2 mps 680 mmHg 37%
08:00 +25°C° 0 mm 1 mps 681 mmHg 31%
09:00 +28°C° 0 mm 1 mps 681 mmHg 24%
10:00 +29°C° 0 mm 1 mps 681 mmHg 21%
11:00 +30°C° 0 mm 2 mps 681 mmHg 18%
12:00 +31°C° 0 mm 2 mps 681 mmHg 15%
13:00 +32°C° 0 mm 2 mps 681 mmHg 15%
14:00 +33°C° 0 mm 3 mps 680 mmHg 14%
15:00 +34°C° 0 mm 3 mps 680 mmHg 14%
16:00 +33°C° 0 mm 3 mps 680 mmHg 15%
17:00 +33°C° 0 mm 3 mps 679 mmHg 17%
18:00 +31°C° 0 mm 3 mps 679 mmHg 18%
19:00 +29°C° 0 mm 2 mps 679 mmHg 24%
20:00 +27°C° 0 mm 2 mps 678 mmHg 30%
21:00 +24°C° 0 mm 2 mps 678 mmHg 37%
22:00 +24°C° 0 mm 2 mps 678 mmHg 38%
23:00 +23°C° 0 mm 2 mps 678 mmHg 40%

16 May, Sunday

Time Temperature Precipitation Wind Pressure Humidity
00:00 +23°C° 0 mm 2 mps 677 mmHg 42%
01:00 +22°C° 0 mm 1 mps 677 mmHg 42%
02:00 +22°C° 0 mm 1 mps 677 mmHg 43%
03:00 +21°C° 0 mm 1 mps 676 mmHg 43%
04:00 +21°C° 0 mm 1 mps 676 mmHg 44%
05:00 +21°C° 0 mm 1 mps 676 mmHg 45%
06:00 +21°C° 0 mm 1 mps 676 mmHg 46%
07:00 +22°C° 0 mm 1 mps 677 mmHg 41%
08:00 +24°C° 0 mm 2 mps 677 mmHg 37%
09:00 +26°C° 0 mm 2 mps 678 mmHg 33%
10:00 +27°C° 0 mm 3 mps 678 mmHg 32%
11:00 +28°C° 0 mm 4 mps 678 mmHg 31%
12:00 +29°C° 0 mm 5 mps 678 mmHg 30%
13:00 +29°C° 0 mm 6 mps 677 mmHg 28%
14:00 +29°C° 0 mm 6 mps 677 mmHg 27%
15:00 +29°C° 0 mm 7 mps 677 mmHg 25%
16:00 +28°C° 0 mm 6 mps 677 mmHg 27%
17:00 +27°C° 0 mm 6 mps 676 mmHg 28%
18:00 +26°C° 0 mm 5 mps 676 mmHg 30%
19:00 +23°C° 0 mm 4 mps 676 mmHg 39%
20:00 +21°C° 0 mm 4 mps 676 mmHg 47%
21:00 +19°C° 0 mm 3 mps 676 mmHg 56%
22:00 +18°C° 0 mm 3 mps 676 mmHg 57%
23:00 +18°C° 0 mm 3 mps 676 mmHg 58%

17 May, Monday

Time Temperature Precipitation Wind Pressure Humidity
00:00 +17°C° 0 mm 2 mps 676 mmHg 59%
01:00 +17°C° 0 mm 2 mps 676 mmHg 60%
02:00 +16°C° 0 mm 2 mps 676 mmHg 61%
03:00 +16°C° 0 mm 2 mps 676 mmHg 63%
04:00 +16°C° 0 mm 2 mps 676 mmHg 63%
05:00 +16°C° 0 mm 1 mps 676 mmHg 63%
06:00 +16°C° 0 mm 1 mps 676 mmHg 64%
07:00 +17°C° 0 mm 2 mps 677 mmHg 57%
08:00 +19°C° 0 mm 2 mps 677 mmHg 51%
09:00 +20°C° 0 mm 2 mps 677 mmHg 45%
10:00 +21°C° 0 mm 4 mps 677 mmHg 41%
11:00 +22°C° 0 mm 5 mps 677 mmHg 37%
12:00 +23°C° 0 mm 6 mps 677 mmHg 34%
13:00 +23°C° 0 mm 6 mps 677 mmHg 34%
14:00 +23°C° 0 mm 6 mps 677 mmHg 34%
15:00 +23°C° 0 mm 6 mps 676 mmHg 34%
16:00 +23°C° 0 mm 6 mps 676 mmHg 35%
17:00 +22°C° 0 mm 6 mps 676 mmHg 35%
18:00 +22°C° 0 mm 5 mps 676 mmHg 36%
19:00 +20°C° 0 mm 5 mps 676 mmHg 43%
20:00 +18°C° 0 mm 4 mps 677 mmHg 50%
21:00 +16°C° 0 mm 3 mps 677 mmHg 57%
22:00 +16°C° 0 mm 3 mps 677 mmHg 59%
23:00 +14°C° 0 mm 3 mps 677 mmHg 61%
Show more